{"data":{"norad_id":65953,"epoch":"2026-09-20T06:06:03.083040Z","epoch_age_seconds":164913,"freshness":"FRESH","line1":"1 65953U 25228G   26263.25420235  .00002057  00000+0  29872-3 0  9993","line2":"2 65953  51.8974 215.1856 0000995  59.4696 300.6364 14.79929738 52114","mean_motion":14.79929738,"eccentricity":9.95e-5,"inclination_deg":51.8974,"raan_deg":215.1856,"arg_perigee_deg":59.4696,"mean_anomaly_deg":300.6364,"bstar":0.00029872,"rev_number":5211,"period_min":97.301916640045,"perigee_km":628.84866206839,"apogee_km":630.24319097077,"semimajor_km":7007.6829265196,"source":"CELESTRAK","updated_at":"2026-09-21T09:00:15.655583Z"}}